This is the latest recevied weather packets stored in our database for station/object KK7PZE-13. If no packets are shown the sender has not sent any weather packets the latest 10 day(s).
| Time | Temp. | Humidity | Pressure | Rain* | Wind** | Luminosity | Snow |
|---|---|---|---|---|---|---|---|
| 1777103935 | 19.44° C | 28% | 1009.5 hPa | 0 mm | - | 0 W/m² | - |
| 1777103633 | 20° C | 26% | 1009.6 hPa | 0 mm | - | 0 W/m² | - |
| 1777103329 | 20.56° C | 26% | 1009.5 hPa | 0 mm | - | 0 W/m² | - |
| 1777103027 | 20.56° C | 26% | 1009.5 hPa | 0 mm | - | 0 W/m² | - |
| 1777102724 | 20.56° C | 26% | 1009.7 hPa | 0 mm | - | 0 W/m² | - |
| 1777102419 | 20.56° C | 25% | 1009.7 hPa | 0 mm | - | 0 W/m² | - |
| 1777102116 | 20.56° C | 25% | 1009.5 hPa | 0 mm | - | 0 W/m² | - |
| 1777101812 | 20.56° C | 25% | 1009.4 hPa | 0 mm | - | 0 W/m² | - |
| 1777101508 | 20.56° C | 25% | 1009.6 hPa | 0 mm | - | 0 W/m² | - |
| 1777101204 | 20.56° C | 25% | 1009.7 hPa | 0 mm | - | 0 W/m² | - |
| 1777100901 | 20.56° C | 25% | 1009.7 hPa | 0 mm | - | 0 W/m² | - |
| 1777100597 | 20.56° C | 25% | 1009.6 hPa | 0 mm | - | 0 W/m² | - |
| 1777100295 | 20.56° C | 24% | 1009.7 hPa | 0 mm | - | 0 W/m² | - |
| 1777099992 | 21.11° C | 24% | 1009.8 hPa | 0 mm | - | 0 W/m² | - |
| 1777099688 | 21.11° C | 23% | 1009.8 hPa | 0 mm | - | 0 W/m² | - |
| 1777099383 | 21.11° C | 23% | 1009.8 hPa | 0 mm | - | 0 W/m² | - |
| 1777099081 | 21.67° C | 23% | 1009.8 hPa | 0 mm | - | 0 W/m² | - |
| 1777098778 | 21.67° C | 22% | 1009.6 hPa | 0 mm | - | 0 W/m² | - |
| 1777098478 | 21.67° C | 22% | 1009.8 hPa | 0 mm | - | 0 W/m² | - |
| 1777098176 | 22.22° C | 21% | 1009.7 hPa | 0 mm | - | 0 W/m² | - |
| 1777097873 | 21.67° C | 21% | 1009.8 hPa | 0 mm | - | 0 W/m² | - |
| 1777097570 | 21.67° C | 21% | 1009.4 hPa | 0 mm | - | 0 W/m² | - |
| 1777097267 | 21.67° C | 20% | 1009.9 hPa | 0 mm | - | 0 W/m² | - |
| 1777096963 | 21.67° C | 20% | 1009.6 hPa | 0 mm | - | 0 W/m² | - |
| 1777096658 | 21.67° C | 20% | 1009.6 hPa | 0 mm | - | 0 W/m² | - |
* Rain latest hour (hover to see other rain measurements)
** Current wind speed in m/s (hover to see current wind gust speed)